Tracking 34403 objects as of 12-Jun-2026
HD Live streaming from Space Station
objects crossing your sky now

STARLINK-31913

Track STARLINK-31913 now!
10-day predictions
STARLINK-31913 is classified as:


NORAD ID: 59667
Int'l Code: 2024-084P
Perigee: 488.6 km
Apogee: 491.8 km
Inclination: 43.0 °
Period: 94.3 minutes
Semi major axis: 6861 km
RCS: Unknown
Launch date: May 6, 2024
Source: United States (US)
Launch site: AIR FORCE EASTERN TEST RANGE (AFETR)
Your satellite tracking list
Your tracking list is empty




NASA's NSSDC Master Catalog

Two Line Element Set (TLE):
1 59667U 24084P   26161.91901913 -.00000651  00000-0 -14113-4 0  9998
2 59667  43.0142 231.6338 0002325 286.0884  73.9711 15.27575097118672
Source of the keplerian elements: AFSPC